Weather in Weststellingwerf

Netherlands     52°51′42″N   5°59′47″E
temp.,
°C
wind,
m/s
gust,
m/s
humid.,
%
clouds,
%
prec.,
mm/h
press.,
hPa
HPBL,
m
29 june, wed
wed2923:00+15ene35720 0.0 101874
02:00+14e49670 0.0 1018144
05:00+14ese47750 0.0 1016104
08:00+18ese47635 0.0 1015209
11:00+23se45515 0.0 1014672
14:00+26se34415 0.0 10131902
17:00+26se344997 0.0 1012868
20:00+24ese26645 0.0 1012581
30 june, thu
thu3023:00+18se34695 0.0 101251
02:00+18ese34686 0.0 101272
05:00+16se348889 0.0 101246
08:00+20sse23790 0.0 1012205
11:00+24sw336221 0.3 1012675
14:00+26wsw335349 0.4 10111490
17:00+25wnw43577 0.0 1010473
20:00+17w9128947 0.7 1011542
1 july, fri
fri123:00+15w6109585 13.3 1013552
02:00+15wsw5993100 13.3 1014544
05:00+13sw4994100 0.1 1014368
08:00+13sw4993100 0.1 1016407
11:00+18sw686522 0.0 10171397
14:00+20wsw684892 0.1 10172012
17:00+20w695313 0.0 10181638
20:00+18w59640 0.0 1019757
2 july, sat
sat223:00+13sw34780 0.0 102050
02:00+12ssw38820 0.0 1021141
05:00+10ssw49880 0.0 1021156
08:00+15ssw510720 0.0 1022343
11:00+19sw68545 0.0 10221004
14:00+23sw57470 0.0 10211933
17:00+24sw47427 0.0 10192325
20:00+21nnw3565100 0.0 1019159
3 july, sun
sun323:00+17ne24726 0.0 101983
02:00+15wnw22790 0.0 101822
05:00+14wsw228617 0.0 101822
08:00+18wsw36740 0.0 1018410
11:00+20w44620 0.0 10191109
14:00+22w565645 0.2 10191680
17:00+20wnw675997 0.1 10201196
20:00+17wnw57700 0.1 1021709